Погода в Селявном

Россия / Воронежская область     50°59′08″N   39°21′16″E
темп.,
°C
ветер,
м/с
пор.,
м/с
влажн.,
%
обл.,
%
осадки,
мм/ч
давл.,
гПа
погр.,
м
7 мая, пт
пт700:00+11зсз3595100 0.9 1011298
03:00+9ссз3793100 4.6 1012383
06:00+11ссз4674100 6.0 1014919
09:00+15сз345337 0.1 10151780
12:00+17сз344031 0.1 10152299
15:00+16сз2246100 0.0 10151369
18:00+11вюв225817 0.0 101624
21:00+9юв4117796 0.0 1016217
8 мая, сб
сб800:00+9ююв51374100 0.0 1015307
03:00+9ююв61472100 0.0 1014394
06:00+13ююв8146885 0.0 1012691
09:00+14ю71475100 0.1 1010830
12:00+15ююз51176100 0.4 1009860
15:00+13юз4996100 3.3 1009516
18:00+11зюз4895100 6.4 1010434
21:00+9зсз51092100 4.0 1011640
9 мая, вс
вс900:00+5сз5988100 1.8 1016683
03:00+7сз5989100 0.0 1015737
06:00+8ссз71082100 0.1 1016937
09:00+9с6972100 0.1 10171269
12:00+10с61064100 0.3 10181626
15:00+11с51061100 0.1 10201324
18:00+7ссв5127799 0.1 1023560
21:00+6с6137792 0.0 1023600
10 мая, пн
пн1000:00+5с7157884 0.0 1024627
03:00+6с91672100 0.0 1025836
06:00+9ссв91667100 0.0 10251072
09:00+9ссв81565100 0.1 1025865
12:00+10ссв81668100 0.2 1025840
15:00+12св81569100 0.0 1024879
18:00+11ссв61361100 0.0 1027915
21:00+9ссв6156970 0.0 1027626
11 мая, вт
вт1100:00+9св7157099 0.0 1026544
03:00+9ссв71472100 0.0 1026530
06:00+10св71374100 0.2 1026620
09:00+14св8126457 0.2 1025760
12:00+18всв81260100 0.2 10231393
15:00+17св9156998 0.0 10221107
18:00+14в81991100 6.6 10231271
21:00+12юв61192100 1.7 1024701